Location: Newark
(60.6561°N, 46.5772°E)
Time: 16:54:09
(UTC+00:00)

Vanguard 2 - Visible Passes

Search period start: 20 October 2019 00:00
Search period end: 30 October 2019 00:00
Orbit: 554 x 2937 km, 32.9° (Epoch: 20 October)

Date Brightness Start Highest point End Pass type
(mag) Time Alt. Az. Time Alt. Az. Time Alt. Az.
20 Oct 11.1 14:50:31 10° SSE 14:51:33 10° SSE 14:52:39 10° SE visible
20 Oct 10.9 16:51:49 10° SSW 16:58:33 17° S 17:00:08 17° SSE visible
20 Oct 11.3 18:59:15 10° SW 19:01:30 13° SW 19:01:30 13° SW visible
21 Oct 11.0 15:05:27 10° S 15:08:35 12° SSE 15:12:04 10° SE visible
21 Oct 11.0 17:09:14 10° SSW 17:15:45 17° S 17:16:41 16° S visible
21 Oct 11.4 19:17:50 10° SW 19:18:03 10° SW 19:18:03 10° SW visible
22 Oct 11.0 15:21:51 10° S 15:25:40 12° SSE 15:30:03 10° SE visible
22 Oct 11.0 17:26:55 10° SSW 17:32:58 15° S 17:33:15 15° S visible
23 Oct 10.9 15:38:48 10° S 15:42:49 13° SSE 15:47:30 10° SE visible
23 Oct 11.1 17:45:00 10° SW 17:49:51 14° S 17:49:51 14° S visible
24 Oct 10.9 15:56:08 10° SSW 16:00:01 13° S 16:04:31 10° SSE visible
24 Oct 11.2 18:03:48 10° SSW 18:06:29 12° SSW 18:06:29 12° SSW visible
25 Oct 11.0 16:13:55 10° SSW 16:17:15 12° S 16:21:03 10° SSE visible
26 Oct 11.1 16:32:32 10° SSW 16:34:32 11° S 16:36:41 10° S visible
